Weather History for Barksdale AFB, LA

Change the Weather History Date:

Tuesday, August 20, 2013

  Actual Average Record
Temperature  
Mean Temperature 80 °F -  
Max Temperature 93 °F 89 °F 106 °F (2011)
Min Temperature 67 °F 70 °F 66 °F (2012)
Cooling Degree Days 14    
Growing Degree Days 30 (Base 50)    
Moisture  
Dew Point 64 °F    
Average Humidity 62    
Maximum Humidity 94    
Minimum Humidity 30    
Precipitation  
Precipitation 0.00 in - - ()
Sea Level Pressure  
Sea Level Pressure 30.03 in    
Wind  
Wind Speed 3 mph (ESE)    
Max Wind Speed 8 mph    
Max Gust Speed -    
Visibility 10 miles    
Events      
Averages and records for this station are not official NWS values.
T = Trace of Precipitation, MM = Missing Value Source: NWS Daily Summary

Daily Weather History Graph

Daily Weather History Graph

Search for Another Location

Airport:

Trip Planner

Search our weather history database for the weather conditions in past years. The results will help you decide how hot, cold, wet, or windy it might be!

Date:

Astronomy

Aug. 20, 2013 Rise Set
Actual Time 6:41 AM CDT 7:53 PM CDT
Civil Twilight 6:16 AM CDT 8:18 PM CDT
Nautical Twilight 5:45 AM CDT 8:49 PM CDT
Astronomical Twilight 5:14 AM CDT 9:20 PM CDT
Moon 7:29 PM CDT (8/20) 6:11 AM CDT (8/20)
Length of Visible Light 14h 02m
Length of Day
13h 11m
Full, 100% of the Moon is Illuminated
Aug 20
Full
Aug 20
Full
Aug 28
Last Quarter
Sep 5
New
Sep 12
First Quarter

Hourly Weather History & Observations

Time (CDT) Temp. Heat Index Dew Point Humidity Pressure Visibility Wind Dir Wind Speed Gust Speed Precip Events Conditions
12:58 AM 71.6 °F - 63.5 °F 76% 30.00 in 10.0 mi NE 1.2 mph - N/A   Clear
1:58 AM 71.2 °F - 64.2 °F 78% 30.01 in 10.0 mi Calm Calm - N/A   Clear
2:58 AM 69.1 °F - 63.9 °F 83% 30.01 in 10.0 mi East 3.5 mph - N/A   Clear
3:58 AM 67.5 °F - 63.9 °F 88% 30.01 in 10.0 mi SE 2.3 mph - N/A   Clear
4:58 AM 69.8 °F - 64.4 °F 83% 30.02 in 10.0 mi SSE 3.5 mph - N/A   Clear
5:55 AM 68.0 °F - 64.4 °F 88% 30.02 in 10.0 mi SE 2.3 mph - N/A   Clear
6:55 AM 68.0 °F - 66.2 °F 94% 30.03 in 10.0 mi NNE 2.3 mph - N/A   Clear
7:58 AM 71.4 °F - 66.7 °F 85% 30.07 in 10.0 mi NE 1.2 mph - N/A   Clear
8:55 AM 77.5 °F - 67.8 °F 72% 30.07 in 10.0 mi Calm Calm - N/A   Clear
9:56 AM 82.4 °F 85.4 °F 68.0 °F 62% 30.07 in 10.0 mi Calm Calm - N/A   Clear
10:58 AM 86.4 °F 88.7 °F 66.6 °F 51% 30.08 in 10.0 mi Variable 3.5 mph - N/A   Clear
11:58 AM 88.7 °F 91.1 °F 66.2 °F 47% 30.08 in 10.0 mi Variable 1.2 mph - N/A   Partly Cloudy
12:58 PM 90.3 °F 91.9 °F 64.2 °F 42% 30.06 in 10.0 mi East 4.6 mph - N/A   Clear
1:58 PM 91.4 °F 91.0 °F 60.4 °F 35% 30.04 in 10.0 mi East 6.9 mph - N/A   Clear
2:58 PM 92.8 °F 91.4 °F 57.0 °F 30% 30.03 in 10.0 mi Variable 1.2 mph - N/A   Clear
3:58 PM 90.5 °F 90.7 °F 61.5 °F 38% 30.02 in 10.0 mi SE 5.8 mph - N/A   Scattered Clouds
4:58 PM 92.8 °F 92.8 °F 60.6 °F 34% 29.99 in 10.0 mi ESE 8.1 mph - N/A   Partly Cloudy
5:58 PM 92.5 °F 92.6 °F 61.5 °F 35% 29.98 in 10.0 mi ESE 5.8 mph - N/A   Clear
6:58 PM 89.4 °F 89.2 °F 60.8 °F 38% 29.99 in 10.0 mi SE 5.8 mph - N/A   Clear
7:58 PM 85.3 °F 86.1 °F 62.8 °F 47% 30.00 in 10.0 mi East 4.6 mph - N/A   Clear
8:58 PM 81.5 °F 82.9 °F 63.7 °F 55% 30.00 in 10.0 mi East 5.8 mph - N/A   Clear
9:58 PM 78.4 °F - 66.2 °F 66% 30.02 in 10.0 mi SE 5.8 mph - N/A   Clear
10:58 PM 75.2 °F - 67.3 °F 76% 30.04 in 10.0 mi SSE 5.8 mph - N/A   Clear
11:58 PM 74.3 °F - 67.6 °F 80% 30.04 in 10.0 mi SE 5.8 mph - N/A   Clear